Time,TemperatureF,DewpointF,PressureIn,WindDirection,WindDirectionDegrees,WindSpeedMPH,WindSpeedGustMPH,Humidity,HourlyPrecipIn,Conditions,Clouds,dailyrainin,SoftwareType,DateUTC
2013-07-17 00:02:00,75.0,73.0,30.29,North,0,0.0,0.0,95,80.67,,,-99.99,,2013-07-17 05:02:00,
2013-07-17 00:11:00,74.0,73.0,30.28,North,0,0.0,0.0,96,80.67,,,-99.99,,2013-07-17 05:11:00,
2013-07-17 00:22:00,74.0,73.0,30.28,North,0,0.0,0.0,96,80.67,,,-99.99,,2013-07-17 05:22:00,
2013-07-17 00:32:00,74.0,73.0,30.29,North,0,0.0,0.0,96,80.67,,,-99.99,,2013-07-17 05:32:00,
2013-07-17 00:43:00,74.0,73.0,30.29,North,0,0.0,0.0,96,80.67,,,-99.99,,2013-07-17 05:43:00,
2013-07-17 00:52:00,74.0,73.0,30.28,North,0,0.0,0.0,97,80.67,,,-99.99,,2013-07-17 05:52:00,
2013-07-17 01:01:00,74.0,73.0,30.29,North,0,0.0,0.0,97,80.67,,,-99.99,,2013-07-17 06:01:00,
2013-07-17 01:11:00,74.0,73.0,30.29,North,0,0.0,0.0,97,80.67,,,-99.99,,2013-07-17 06:11:00,
2013-07-17 01:22:00,74.0,73.0,30.29,North,0,0.0,0.0,97,80.67,,,-99.99,,2013-07-17 06:22:00,
2013-07-17 01:32:00,74.0,73.0,30.29,North,0,0.0,0.0,97,80.67,,,-99.99,,2013-07-17 06:32:00,
2013-07-17 01:43:00,73.0,72.0,30.28,North,0,0.0,0.0,97,80.67,,,-99.99,,2013-07-17 06:43:00,
2013-07-17 01:52:00,73.0,72.0,30.28,North,0,0.0,0.0,97,80.67,,,-99.99,,2013-07-17 06:52:00,
2013-07-17 02:01:00,73.0,72.0,30.29,North,0,0.0,0.0,98,80.67,,,-99.99,,2013-07-17 07:01:00,
2013-07-17 02:11:00,73.0,72.0,30.28,North,0,0.0,0.0,98,80.67,,,-99.99,,2013-07-17 07:11:00,
2013-07-17 02:22:00,73.0,72.0,30.29,North,0,0.0,0.0,98,80.67,,,-99.99,,2013-07-17 07:22:00,
2013-07-17 02:32:00,73.0,72.0,30.29,North,0,0.0,0.0,98,80.67,,,-99.99,,2013-07-17 07:32:00,
2013-07-17 02:42:00,73.0,73.0,30.29,North,0,0.0,0.0,99,80.67,,,-99.99,,2013-07-17 07:42:00,
2013-07-17 02:52:00,73.0,73.0,30.29,North,0,0.0,0.0,99,80.67,,,-99.99,,2013-07-17 07:52:00,
2013-07-17 03:01:00,72.0,72.0,30.29,North,0,0.0,0.0,99,80.67,,,-99.99,,2013-07-17 08:01:00,
2013-07-17 03:11:00,72.0,72.0,30.29,North,0,0.0,0.0,99,80.67,,,-99.99,,2013-07-17 08:11:00,
2013-07-17 03:22:00,72.0,72.0,30.29,North,0,0.0,0.0,99,80.67,,,-99.99,,2013-07-17 08:22:00,
2013-07-17 03:32:00,72.0,72.0,30.29,North,0,0.0,0.0,99,80.67,,,-99.99,,2013-07-17 08:32:00,
2013-07-17 03:43:00,72.0,72.0,30.29,North,0,0.0,0.0,99,80.67,,,-99.99,,2013-07-17 08:43:00,
2013-07-17 03:53:00,72.0,72.0,30.29,North,0,0.0,0.0,99,80.67,,,-99.99,,2013-07-17 08:53:00,
2013-07-17 04:02:00,72.0,72.0,30.29,North,0,0.0,0.0,99,80.67,,,-99.99,,2013-07-17 09:02:00,
2013-07-17 04:12:00,72.0,72.0,30.29,North,0,0.0,0.0,99,80.67,,,-99.99,,2013-07-17 09:12:00,
2013-07-17 04:22:00,72.0,72.0,30.29,North,0,0.0,0.0,99,80.67,,,-99.99,,2013-07-17 09:22:00,
2013-07-17 04:32:00,72.0,72.0,30.29,North,0,0.0,0.0,99,80.67,,,-99.99,,2013-07-17 09:32:00,
2013-07-17 04:43:00,72.0,72.0,30.29,North,0,0.0,0.0,99,80.67,,,-99.99,,2013-07-17 09:43:00,
2013-07-17 04:52:00,72.0,72.0,30.29,North,0,0.0,0.0,99,80.67,,,-99.99,,2013-07-17 09:52:00,
2013-07-17 05:01:00,72.0,72.0,30.29,North,0,0.0,0.0,99,80.67,,,-99.99,,2013-07-17 10:01:00,
2013-07-17 05:11:00,72.0,72.0,30.29,North,0,0.0,0.0,99,80.67,,,-99.99,,2013-07-17 10:11:00,
2013-07-17 05:22:00,72.0,72.0,30.29,North,0,0.0,0.0,99,80.67,,,-99.99,,2013-07-17 10:22:00,
2013-07-17 05:32:00,71.0,71.0,30.30,North,0,0.0,0.0,99,80.67,,,-99.99,,2013-07-17 10:32:00,
2013-07-17 05:43:00,71.0,71.0,30.30,North,0,0.0,0.0,99,80.67,,,-99.99,,2013-07-17 10:43:00,
2013-07-17 05:52:00,71.0,71.0,30.30,North,0,0.0,0.0,99,80.67,,,-99.99,,2013-07-17 10:52:00,
2013-07-17 06:02:00,71.0,71.0,30.31,North,0,0.0,0.0,99,80.67,,,-99.99,,2013-07-17 11:02:00,
2013-07-17 06:11:00,71.0,71.0,30.31,North,0,0.0,0.0,99,80.67,,,-99.99,,2013-07-17 11:11:00,
2013-07-17 06:22:00,71.0,71.0,30.31,North,0,0.0,0.0,99,80.67,,,-99.99,,2013-07-17 11:22:00,
2013-07-17 06:32:00,71.0,71.0,30.31,North,0,0.0,0.0,99,80.67,,,-99.99,,2013-07-17 11:32:00,
2013-07-17 06:42:00,71.0,71.0,30.32,North,0,0.0,0.0,100,80.67,,,-99.99,,2013-07-17 11:42:00,
2013-07-17 06:52:00,71.0,71.0,30.32,North,0,0.0,0.0,100,80.67,,,-99.99,,2013-07-17 11:52:00,
2013-07-17 07:01:00,72.0,72.0,30.32,North,0,0.0,0.0,100,80.67,,,-99.99,,2013-07-17 12:01:00,
2013-07-17 07:12:00,73.0,73.0,30.32,North,0,0.0,0.0,100,80.67,,,-99.99,,2013-07-17 12:12:00,
2013-07-17 07:22:00,73.0,73.0,30.32,North,0,0.0,0.0,99,80.67,,,-99.99,,2013-07-17 12:22:00,
2013-07-17 07:32:00,74.0,74.0,30.32,North,0,0.0,0.0,99,80.67,,,-99.99,,2013-07-17 12:32:00,
2013-07-17 07:42:00,74.0,74.0,30.33,North,0,0.0,0.0,99,80.67,,,-99.99,,2013-07-17 12:42:00,
2013-07-17 07:53:00,75.0,75.0,30.33,North,0,0.0,0.0,99,80.67,,,-99.99,,2013-07-17 12:53:00,
2013-07-17 08:01:00,75.0,75.0,30.33,North,0,0.0,0.0,99,80.67,,,-99.99,,2013-07-17 13:01:00,
2013-07-17 08:12:00,76.0,76.0,30.33,North,0,0.0,0.0,99,80.67,,,-99.99,,2013-07-17 13:12:00,
2013-07-17 08:22:00,77.0,76.0,30.33,North,0,0.0,0.0,97,80.67,,,-99.99,,2013-07-17 13:22:00,
2013-07-17 08:32:00,78.0,75.0,30.34,North,0,0.0,0.0,92,80.67,,,-99.99,,2013-07-17 13:32:00,
2013-07-17 08:43:00,80.0,76.0,30.33,ENE,73,1.0,2.0,87,80.67,,,-99.99,,2013-07-17 13:43:00,
2013-07-17 08:52:00,80.0,76.0,30.33,ENE,73,1.0,2.0,87,80.67,,,-99.99,,2013-07-17 13:52:00,
2013-07-17 09:02:00,80.0,76.0,30.33,ENE,73,1.0,2.0,87,80.67,,,-99.99,,2013-07-17 14:02:00,
2013-07-17 09:11:00,83.0,74.0,30.33,SSE,167,0.0,2.0,75,80.67,,,-99.99,,2013-07-17 14:11:00,
2013-07-17 09:22:00,83.0,74.0,30.33,SSE,167,0.0,2.0,75,80.67,,,-99.99,,2013-07-17 14:22:00,
2013-07-17 09:32:00,85.0,75.0,30.33,SSE,160,0.0,0.0,71,80.67,,,-99.99,,2013-07-17 14:32:00,
2013-07-17 09:43:00,86.0,74.0,30.33,NNE,24,1.0,4.0,67,80.67,,,-99.99,,2013-07-17 14:43:00,
2013-07-17 09:52:00,87.0,75.0,30.32,SSE,159,0.0,2.0,67,80.67,,,-99.99,,2013-07-17 14:52:00,
2013-07-17 10:02:00,87.0,73.0,30.32,SSE,163,0.0,2.0,64,80.67,,,-99.99,,2013-07-17 15:02:00,
2013-07-17 10:12:00,88.0,75.0,30.32,SSE,148,0.0,3.0,65,80.67,,,-99.99,,2013-07-17 15:12:00,
2013-07-17 10:22:00,88.0,74.0,30.32,NW,305,1.0,2.0,64,80.67,,,-99.99,,2013-07-17 15:22:00,
2013-07-17 10:32:00,89.0,74.0,30.32,SW,214,1.0,3.0,62,80.67,,,-99.99,,2013-07-17 15:32:00,
2013-07-17 10:42:00,89.0,73.0,30.32,North,0,1.0,3.0,60,80.67,,,-99.99,,2013-07-17 15:42:00,
2013-07-17 10:52:00,89.0,73.0,30.32,North,0,1.0,3.0,60,80.67,,,-99.99,,2013-07-17 15:52:00,
2013-07-17 11:02:00,86.0,74.0,30.32,North,0,0.0,0.0,67,80.67,,,-99.99,,2013-07-17 16:02:00,
2013-07-17 11:11:00,85.0,73.0,30.32,North,0,0.0,0.0,68,80.67,,,-99.99,,2013-07-17 16:11:00,
2013-07-17 11:22:00,85.0,73.0,30.32,West,262,0.0,1.0,67,80.67,,,-99.99,,2013-07-17 16:22:00,
2013-07-17 11:33:00,86.0,72.0,30.32,WSW,243,1.0,2.0,63,80.67,,,-99.99,,2013-07-17 16:33:00,
2013-07-17 11:42:00,88.0,73.0,30.31,West,280,1.0,2.0,61,80.67,,,-99.99,,2013-07-17 16:42:00,
2013-07-17 11:52:00,90.0,71.0,30.31,WSW,255,1.0,3.0,54,80.67,,,-99.99,,2013-07-17 16:52:00,
2013-07-17 12:02:00,90.0,71.0,30.31,WNW,293,1.0,3.0,54,80.67,,,-99.99,,2013-07-17 17:02:00,
2013-07-17 12:11:00,91.0,71.0,30.31,SE,135,2.0,5.0,52,80.67,,,-99.99,,2013-07-17 17:11:00,
2013-07-17 12:22:00,90.0,71.0,30.31,West,281,1.0,3.0,53,80.67,,,-99.99,,2013-07-17 17:22:00,
2013-07-17 12:32:00,89.0,70.0,30.31,WNW,291,1.0,3.0,53,80.67,,,-99.99,,2013-07-17 17:32:00,
2013-07-17 12:43:00,89.0,71.0,30.30,North,0,0.0,0.0,55,80.67,,,-99.99,,2013-07-17 17:43:00,
2013-07-17 12:52:00,89.0,70.0,30.30,SSW,200,1.0,2.0,54,80.67,,,-99.99,,2013-07-17 17:52:00,
2013-07-17 13:01:00,91.0,71.0,30.30,WSW,246,1.0,4.0,52,80.67,,,-99.99,,2013-07-17 18:01:00,
2013-07-17 13:11:00,90.0,72.0,30.30,North,0,1.0,3.0,55,80.67,,,-99.99,,2013-07-17 18:11:00,
2013-07-17 13:22:00,90.0,73.0,30.29,NNE,25,2.0,5.0,57,80.67,,,-99.99,,2013-07-17 18:22:00,
2013-07-17 13:32:00,90.0,69.0,30.29,North,1,1.0,5.0,51,80.67,,,-99.99,,2013-07-17 18:32:00,
2013-07-17 13:43:00,91.0,70.0,30.29,West,277,1.0,3.0,51,80.67,,,-99.99,,2013-07-17 18:43:00,
2013-07-17 13:52:00,92.0,72.0,30.28,North,11,1.0,5.0,52,80.67,,,-99.99,,2013-07-17 18:52:00,
2013-07-17 14:01:00,92.0,71.0,30.28,WNW,283,2.0,9.0,51,80.67,,,-99.99,,2013-07-17 19:01:00,
2013-07-17 14:11:00,92.0,68.0,30.28,WNW,288,2.0,6.0,46,80.67,,,-99.99,,2013-07-17 19:11:00,
2013-07-17 14:22:00,92.0,68.0,30.28,WNW,288,2.0,6.0,46,80.67,,,-99.99,,2013-07-17 19:22:00,
2013-07-17 14:32:00,94.0,70.0,30.27,West,276,2.0,5.0,46,80.67,,,-99.99,,2013-07-17 19:32:00,
2013-07-17 14:43:00,93.0,70.0,30.27,NNE,28,2.0,4.0,47,80.67,,,-99.99,,2013-07-17 19:43:00,
2013-07-17 14:53:00,92.0,71.0,30.26,NNE,30,2.0,4.0,51,80.67,,,-99.99,,2013-07-17 19:53:00,
2013-07-17 15:02:00,92.0,72.0,30.26,North,7,1.0,4.0,52,80.67,,,-99.99,,2013-07-17 20:02:00,
2013-07-17 15:11:00,93.0,69.0,30.26,West,267,1.0,5.0,46,80.67,,,-99.99,,2013-07-17 20:11:00,
2013-07-17 15:22:00,94.0,69.0,30.25,WNW,291,2.0,4.0,45,80.67,,,-99.99,,2013-07-17 20:22:00,
2013-07-17 15:33:00,93.0,70.0,30.25,NE,49,1.0,3.0,47,80.67,,,-99.99,,2013-07-17 20:33:00,
2013-07-17 15:43:00,93.0,70.0,30.25,West,264,1.0,5.0,47,80.67,,,-99.99,,2013-07-17 20:43:00,
2013-07-17 15:52:00,93.0,68.0,30.25,NNE,24,1.0,5.0,45,80.67,,,-99.99,,2013-07-17 20:52:00,
2013-07-17 16:02:00,94.0,70.0,30.24,West,263,1.0,4.0,46,80.67,,,-99.99,,2013-07-17 21:02:00,
2013-07-17 16:12:00,94.0,69.0,30.24,WNW,287,2.0,6.0,44,80.67,,,-99.99,,2013-07-17 21:12:00,
2013-07-17 16:22:00,95.0,70.0,30.24,SSW,208,2.0,6.0,45,80.67,,,-99.99,,2013-07-17 21:22:00,
2013-07-17 16:32:00,94.0,70.0,30.23,West,263,1.0,4.0,46,80.67,,,-99.99,,2013-07-17 21:32:00,
2013-07-17 16:42:00,93.0,69.0,30.23,WNW,285,2.0,6.0,46,80.67,,,-99.99,,2013-07-17 21:42:00,
2013-07-17 16:52:00,93.0,69.0,30.23,WSW,252,2.0,6.0,46,80.67,,,-99.99,,2013-07-17 21:52:00,
2013-07-17 17:01:00,93.0,69.0,30.23,West,276,1.0,6.0,46,80.67,,,-99.99,,2013-07-17 22:01:00,
2013-07-17 17:11:00,93.0,69.0,30.22,West,266,2.0,6.0,46,80.67,,,-99.99,,2013-07-17 22:11:00,
2013-07-17 17:22:00,94.0,70.0,30.22,West,274,1.0,3.0,46,80.67,,,-99.99,,2013-07-17 22:22:00,
2013-07-17 17:32:00,93.0,70.0,30.22,North,0,1.0,7.0,47,80.67,,,-99.99,,2013-07-17 22:32:00,
2013-07-17 17:43:00,93.0,70.0,30.22,West,263,1.0,3.0,47,80.67,,,-99.99,,2013-07-17 22:43:00,
2013-07-17 17:53:00,93.0,70.0,30.21,NW,308,1.0,4.0,47,80.67,,,-99.99,,2013-07-17 22:53:00,
2013-07-17 18:02:00,93.0,71.0,30.21,North,8,1.0,3.0,49,80.67,,,-99.99,,2013-07-17 23:02:00,
2013-07-17 18:11:00,93.0,72.0,30.21,NE,44,0.0,2.0,50,80.67,,,-99.99,,2013-07-17 23:11:00,
2013-07-17 18:22:00,92.0,71.0,30.21,ENE,63,1.0,3.0,50,80.67,,,-99.99,,2013-07-17 23:22:00,
2013-07-17 18:32:00,92.0,70.0,30.21,West,273,1.0,3.0,49,80.67,,,-99.99,,2013-07-17 23:32:00,
2013-07-17 18:43:00,92.0,70.0,30.21,NNW,338,1.0,4.0,49,80.67,,,-99.99,,2013-07-17 23:43:00,
2013-07-17 18:52:00,92.0,69.0,30.20,NW,305,0.0,3.0,48,80.67,,,-99.99,,2013-07-17 23:52:00,
2013-07-17 19:01:00,91.0,70.0,30.20,NNE,15,1.0,4.0,50,80.67,,,-99.99,,2013-07-18 00:01:00,
2013-07-17 19:11:00,90.0,70.0,30.20,WNW,295,0.0,3.0,52,80.67,,,-99.99,,2013-07-18 00:11:00,
2013-07-17 19:22:00,90.0,71.0,30.20,WNW,283,1.0,3.0,53,80.67,,,-99.99,,2013-07-18 00:22:00,
2013-07-17 19:33:00,90.0,72.0,30.20,WNW,284,0.0,1.0,55,80.67,,,-99.99,,2013-07-18 00:33:00,
2013-07-17 19:43:00,89.0,71.0,30.19,North,0,0.0,0.0,56,80.67,,,-99.99,,2013-07-18 00:43:00,
2013-07-17 19:52:00,89.0,72.0,30.19,North,0,0.0,0.0,58,80.67,,,-99.99,,2013-07-18 00:52:00,
2013-07-17 20:01:00,88.0,72.0,30.19,North,0,0.0,0.0,60,80.67,,,-99.99,,2013-07-18 01:01:00,
2013-07-17 20:11:00,88.0,73.0,30.19,North,0,0.0,0.0,61,80.67,,,-99.99,,2013-07-18 01:11:00,
2013-07-17 20:22:00,88.0,74.0,30.19,North,0,0.0,0.0,63,80.67,,,-99.99,,2013-07-18 01:22:00,
2013-07-17 20:32:00,85.0,73.0,30.19,North,0,0.0,0.0,68,80.67,,,-99.99,,2013-07-18 01:32:00,
2013-07-17 20:42:00,84.0,73.0,30.19,North,0,0.0,0.0,70,80.67,,,-99.99,,2013-07-18 01:42:00,
2013-07-17 20:53:00,83.0,73.0,30.19,North,0,0.0,0.0,71,80.67,,,-99.99,,2013-07-18 01:53:00,
2013-07-17 21:02:00,83.0,73.0,30.19,North,0,0.0,0.0,73,80.67,,,-99.99,,2013-07-18 02:02:00,
2013-07-17 21:11:00,82.0,73.0,30.19,North,0,0.0,0.0,75,80.67,,,-99.99,,2013-07-18 02:11:00,
2013-07-17 21:22:00,81.0,73.0,30.20,North,0,0.0,0.0,77,80.67,,,-99.99,,2013-07-18 02:22:00,
2013-07-17 21:32:00,81.0,73.0,30.20,North,0,0.0,0.0,78,80.67,,,-99.99,,2013-07-18 02:32:00,
2013-07-17 21:43:00,81.0,74.0,30.20,North,0,0.0,0.0,79,80.67,,,-99.99,,2013-07-18 02:43:00,
2013-07-17 21:52:00,80.0,73.0,30.20,North,0,0.0,0.0,80,80.67,,,-99.99,,2013-07-18 02:52:00,
2013-07-17 22:01:00,80.0,74.0,30.21,North,0,0.0,0.0,82,80.67,,,-99.99,,2013-07-18 03:01:00,
2013-07-17 22:11:00,79.0,74.0,30.21,North,0,0.0,0.0,84,80.67,,,-99.99,,2013-07-18 03:11:00,
2013-07-17 22:22:00,79.0,74.0,30.21,North,0,0.0,0.0,85,80.67,,,-99.99,,2013-07-18 03:22:00,
2013-07-17 22:32:00,78.0,73.0,30.21,North,0,0.0,0.0,86,80.67,,,-99.99,,2013-07-18 03:32:00,
2013-07-17 22:43:00,78.0,74.0,30.21,North,0,0.0,0.0,88,80.67,,,-99.99,,2013-07-18 03:43:00,
2013-07-17 22:52:00,78.0,74.0,30.21,North,0,0.0,0.0,89,80.67,,,-99.99,,2013-07-18 03:52:00,
2013-07-17 23:02:00,77.0,74.0,30.21,North,0,0.0,0.0,91,80.67,,,-99.99,,2013-07-18 04:02:00,
2013-07-17 23:12:00,77.0,74.0,30.20,North,0,0.0,0.0,92,80.67,,,-99.99,,2013-07-18 04:12:00,
2013-07-17 23:22:00,77.0,75.0,30.20,North,0,0.0,0.0,94,80.67,,,-99.99,,2013-07-18 04:22:00,
2013-07-17 23:32:00,77.0,75.0,30.20,North,0,0.0,0.0,95,80.67,,,-99.99,,2013-07-18 04:32:00,
2013-07-17 23:43:00,77.0,75.0,30.20,North,0,0.0,0.0,95,80.67,,,-99.99,,2013-07-18 04:43:00,
2013-07-17 23:52:00,77.0,75.0,30.20,North,0,0.0,0.0,95,80.67,,,-99.99,,2013-07-18 04:52:00,